User: anonymous   Login
Location: Unspecified
(0.0000°N, 0.0000°E)
Time: 00:28:59
(UTC+00:00)
Language:

Dynamics Explorer 1 - Orbit

View from above orbital plane
View from above orbital plane
View from above satellite
View from above satellite

Ground track
Ground track

The orbit data is extracted from the following two-line orbital elements,

1 12624U 81070A   18203.41883157 +.00000049 +00000-0 +81835-4 0  9994
2 12624 090.1927 034.0864 6188572 090.3037 336.0330 03.52495459623385
Epoch (UTC): 22 July 2018 10:03:07
Eccentricity: 0.6188572
inclination: 90.1927°
perigee height: 573 km
apogee height: 23145 km
right ascension of ascending node: 34.0864°
argument of perigee: 90.3037°
revolutions per day: 3.52495459
mean anomaly at epoch: 336.0330°
orbit number at epoch: 62338

The dashed part of the orbit path shows where the satellite is in the earth's shadow,  

DLR